Wellsville, NY

2:48 AM EDT on April 25, 2017 (GMT -0400)
Wellsville Municipal-Tarantine

Weather History for KELZ - January, 2014

Change the Weather History Date:

Tuesday, January 14, 2014

  Actual Average (KDSV) Record (KDSV)
Temperature  
Mean Temperature 45 °F -  
Max Temperature 60 °F 33 °F 66 °F (1972)
Min Temperature 30 °F 13 °F -13 °F (1957)
Degree Days  
Heating Degree Days 20    
Moisture  
Dew Point 34 °F    
Average Humidity 70    
Maximum Humidity 93    
Minimum Humidity 44    
Precipitation  
Precipitation 0.11 in - - ()
Sea Level Pressure  
Sea Level Pressure 29.72 in    
Wind  
Wind Speed 7 mph (WSW)    
Max Wind Speed 12 mph    
Max Gust Speed 17 mph    
Visibility 10 miles    
Events Rain    
Averages and records for this station are not official NWS values.
T = Trace of Precipitation, MM = Missing Value Source: NWS Daily Summary

Daily Weather History Graph

Daily Weather History Graph

Search for Another Location

Airport or City:

Trip Planner

Search our weather history database for the weather conditions in past years. The results will help you decide how hot, cold, wet, or windy it might be!

Date:

Astronomy

Jan. 14, 2014 Rise Set
Actual Time 7:38 AM EST 5:04 PM EST
Civil Twilight 7:07 AM EST 5:35 PM EST
Nautical Twilight 6:32 AM EST 6:09 PM EST
Astronomical Twilight 5:59 AM EST 6:43 PM EST
Moon 4:08 PM EST (1/14) 6:10 AM EST (1/14)
Length of Visible Light 10h 27m
Length of Day
9h 26m
Waxing Gibbous, 98% of the Moon is Illuminated
Jan 14
Waxing Gibbous
Jan 15
Full
Jan 24
Last Quarter
Jan 30
New
Feb 6
First Quarter

Hourly Weather History & Observations

Time (EST) Temp. Windchill Dew Point Humidity Pressure Visibility Wind Dir Wind Speed Gust Speed Precip Events Conditions
12:56 AM 41.0 °F 34.7 °F 37.9 °F 89% 29.69 in 10.0 mi SW 10.4 mph - 0.02 in Rain Light Rain
1:27 AM 41.0 °F 34.7 °F 37.4 °F 87% 29.66 in 10.0 mi SSW 10.4 mph 17.3 mph 0.00 in Rain Light Rain
1:56 AM 41.0 °F 36.4 °F 39.0 °F 93% 29.69 in 10.0 mi SSW 6.9 mph - 0.00 in Rain Light Rain
2:40 AM 42.8 °F 38.6 °F 39.2 °F 87% 29.67 in 10.0 mi SSW 6.9 mph - 0.01 in Rain Light Rain
2:56 AM 42.1 °F 37.1 °F 39.0 °F 89% 29.68 in 10.0 mi SSW 8.1 mph - 0.01 in Rain Light Rain
3:47 AM 42.8 °F 39.3 °F 39.2 °F 87% 29.65 in 10.0 mi SW 5.8 mph - 0.03 in Rain Light Rain
3:56 AM 46.0 °F 41.0 °F 39.9 °F 79% 29.67 in 10.0 mi SSW 10.4 mph - 0.03 in Rain Light Rain
4:03 AM 51.8 °F - 39.2 °F 62% 29.64 in 10.0 mi SSW 6.9 mph - 0.00 in Rain Light Rain
4:56 AM 60.1 °F - 39.9 °F 47% 29.64 in 10.0 mi SSW 5.8 mph - 0.00 in Rain Light Rain
5:32 AM 59.0 °F - 39.2 °F 48% 29.64 in 9.0 mi SSW 6.9 mph - 0.01 in Rain Light Rain
5:43 AM 60.8 °F - 39.2 °F 45% 29.64 in 7.0 mi SW 8.1 mph - 0.01 in Rain Light Rain
5:51 AM 60.8 °F - 39.2 °F 45% 29.65 in 8.0 mi SW 9.2 mph - 0.02 in Rain Light Rain
5:56 AM 60.1 °F - 39.9 °F 47% 29.65 in 9.0 mi WSW 10.4 mph - 0.02 in Rain Light Rain
6:02 AM 57.2 °F - 39.2 °F 51% 29.65 in 10.0 mi West 11.5 mph - 0.00 in Rain Light Rain
6:38 AM 57.2 °F - 37.4 °F 48% 29.67 in 9.0 mi West 6.9 mph - 0.01 in Rain Light Rain
6:56 AM 53.1 °F - 37.9 °F 57% 29.68 in 10.0 mi WSW 4.6 mph - 0.02 in Rain Light Rain
7:42 AM 50.0 °F - 35.6 °F 58% 29.67 in 10.0 mi West 3.5 mph - 0.00 in   Overcast
7:56 AM 46.9 °F - 37.0 °F 68% 29.70 in 10.0 mi Calm Calm - 0.00 in   Overcast
8:36 AM 53.6 °F - 37.4 °F 54% 29.69 in 10.0 mi SW 4.6 mph - N/A   Overcast
8:56 AM 55.9 °F - 37.0 °F 49% 29.73 in 10.0 mi West 5.8 mph - 0.00 in Rain Light Rain
9:11 AM 57.2 °F - 37.4 °F 48% 29.72 in 10.0 mi West 4.6 mph - 0.00 in Rain Light Rain
9:34 AM 55.4 °F - 37.4 °F 51% 29.72 in 10.0 mi WSW 4.6 mph - 0.01 in Rain Light Rain
9:43 AM 57.2 °F - 37.4 °F 48% 29.71 in 10.0 mi West 5.8 mph - 0.01 in Rain Light Rain
9:56 AM 57.0 °F - 37.0 °F 47% 29.73 in 10.0 mi WNW 6.9 mph - 0.01 in Rain Light Rain
10:03 AM 53.6 °F - 37.4 °F 54% 29.72 in 10.0 mi NW 3.5 mph - 0.00 in Rain Light Rain
10:56 AM 57.9 °F - 36.0 °F 44% 29.74 in 9.0 mi WNW 6.9 mph - 0.00 in   Overcast
11:56 AM 37.9 °F 32.7 °F 34.0 °F 86% 29.75 in 7.0 mi NW 6.9 mph - N/A   Overcast
12:56 PM 37.9 °F 34.4 °F 34.0 °F 86% 29.73 in 5.0 mi NW 4.6 mph - N/A   Overcast
1:56 PM 37.0 °F 31.0 °F 33.1 °F 86% 29.74 in 9.0 mi West 8.1 mph - N/A   Overcast
2:17 PM 37.4 °F 30.8 °F 33.8 °F 87% 29.69 in 10.0 mi West 9.2 mph - N/A   Overcast
2:56 PM 37.0 °F 31.0 °F 32.0 °F 82% 29.74 in 10.0 mi WNW 8.1 mph - N/A   Overcast
3:05 PM 37.4 °F 32.1 °F 30.2 °F 75% 29.71 in 10.0 mi West 6.9 mph - N/A   Overcast
3:56 PM 35.1 °F 27.4 °F 30.0 °F 82% 29.75 in 10.0 mi NW 10.4 mph - N/A   Overcast
4:56 PM 34.0 °F 26.6 °F 28.0 °F 79% 29.76 in 10.0 mi WNW 9.2 mph - N/A   Overcast
5:56 PM 32.0 °F 27.5 °F 27.0 °F 82% 29.78 in 10.0 mi West 4.6 mph - N/A   Mostly Cloudy
6:07 PM 33.8 °F - 26.6 °F 75% 29.75 in 10.0 mi Calm Calm - N/A   Partly Cloudy
6:56 PM 32.0 °F 28.7 °F 27.0 °F 82% 29.79 in 10.0 mi SW 3.5 mph - N/A   Scattered Clouds
7:34 PM 32.0 °F - 26.6 °F 80% 29.77 in 10.0 mi Calm Calm - N/A   Mostly Cloudy
7:56 PM 32.0 °F 26.4 °F 26.1 °F 79% 29.81 in 10.0 mi WSW 5.8 mph - N/A   Mostly Cloudy
8:09 PM 32.0 °F 27.5 °F 26.6 °F 80% 29.77 in 10.0 mi West 4.6 mph - N/A   Scattered Clouds
8:17 PM 32.0 °F 25.6 °F 26.6 °F 80% 29.77 in 10.0 mi SW 6.9 mph - N/A   Mostly Cloudy
8:24 PM 32.0 °F 26.4 °F 26.6 °F 80% 29.77 in 10.0 mi SW 5.8 mph - N/A   Scattered Clouds
8:56 PM 32.0 °F 24.8 °F 25.0 °F 75% 29.81 in 10.0 mi SW 8.1 mph - N/A   Partly Cloudy
9:56 PM 30.9 °F 24.3 °F 25.0 °F 79% 29.81 in 10.0 mi WSW 6.9 mph - N/A   Clear
10:56 PM 30.9 °F 25.2 °F 26.1 °F 82% 29.79 in 10.0 mi SSW 5.8 mph - N/A   Clear
11:56 PM 32.0 °F 28.7 °F 26.1 °F 79% 29.83 in 10.0 mi South 3.5 mph - N/A   Clear